Temp
-8 -8 -8 -8 -8 -8 -8 -8 -10 -10 -9 -7 -8 -8 -8 -8 -9 -8 -7 -8 -8 -8 -9 -9 -9 -9 -9 -9 -9 -9 -8 -8 -9 -9 -9 -9 -9 -8 -8 -8 -8 -8 -8 -8 -8 -8 -9 -8 -8
-8 -8 -8 -8 -8 -8 -9 -10 -10 -10 -7 -7 -8 -8 -8 -9 -9 -8 -8 -9 -9 -9 -9 -9 -9 -9 -9 -9 -9 -9 -9 -9 -9 -9 -9 -9 -9 -9 -8 -8 -8 -8 -8 -8 -8 -8 -9 -9 -9
-9 -9 -9 -9 -9 -8 -9 -10 -10 -10 -8 -8 -8 -8 -9 -9 -8 -9 -9 -9 -9 -9 -9 -9 -9 -10 -10 -10 -9 -9 -9 -9 -9 -9 -9 -9 -9 -9 -8 -8 -8 -8 -8 -8 -8 -8 -8 -9 -9
-8 -9 -9 -9 -9 -9 -9 -11 -11 -8 -8 -9 -9 -9 -8 -9 -9 -9 -9 -9 -9 -9 -9 -9 -10 -10 -10 -10 -10 -10 -9 -9 -9 -9 -9 -9 -9 -9 -9 -9 -9 -8 -8 -8 -8 -8 -9 -9 -9
-9 -9 -9 -9 -9 -9 -10 -10 -11 -8 -9 -9 -9 -9 -9 -8 -9 -9 -9 -9 -9 -9 -9 -9 -9 -10 -10 -9 -10 -10 -10 -9 -9 -9 -9 -9 -9 -9 -9 -9 -9 -9 -8 -8 -8 -9 -9 -9 -9
-9 -9 -9 -10 -10 -10 -12 -12 -11 -9 -9 -9 -9 -9 -9 -8 -8 -9 -9 -9 -9 -9 -9 -10 -10 -10 -10 -10 -10 -10 -10 -10 -10 -10 -10 -9 -9 -9 -9 -9 -9 -9 -9 -9 -9 -9 -9 -9 -9
-9 -9 -9 -10 -10 -10 -10 -12 -10 -9 -10 -9 -9 -9 -10 -10 -8 -9 -9 -9 -9 -9 -9 -10 -10 -10 -10 -10 -10 -10 -10 -10 -10 -10 -10 -10 -10 -10 -10 -10 -9 -9 -9 -9 -9 -10 -10 -10 -10
-10 -9 -10 -10 -10 -11 -11 -10 -10 -10 -10 -9 -9 -10 -10 -9 -8 -9 -10 -9 -9 -9 -9 -10 -10 -10 -10 -10 -10 -10 -10 -10 -10 -10 -10 -10 -9 -10 -10 -10 -10 -10 -10 -10 -10 -10 -10 -10 -10
-10 -10 -10 -10 -11 -11 -11 -10 -10 -10 -9 -10 -9 -9 -10 -10 -9 -9 -9 -9 -9 -9 -9 -9 -10 -10 -10 -10 -10 -10 -10 -10 -10 -11 -11 -10 -10 -10 -10 -10 -10 -10 -10 -10 -10 -10 -10 -10 -10
-10 -10 -10 -11 -10 -11 -10 -11 -11 -10 -10 -10 -10 -10 -9 -10 -10 -9 -9 -10 -9 -9 -9 -9 -9 -10 -11 -11 -11 -11 -10 -10 -10 -11 -11 -11 -11 -11 -11 -10 -10 -11 -10 -10 -11 -11 -11 -10 -10
-10 -10 -11 -11 -11 -10 -10 -11 -11 -10 -10 -10 -10 -10 -10 -9 -9 -10 -10 -10 -10 -9 -9 -9 -9 -10 -10 -11 -11 -11 -11 -10 -11 -11 -11 -11 -11 -11 -11 -11 -11 -11 -11 -11 -11 -11 -11 -11 -11
-10 -10 -10 -10 -11 -11 -10 -10 -10 -11 -11 -11 -10 -10 -10 -10 -10 -10 -10 -10 -10 -10 -9 -10 -11 -11 -10 -11 -10 -11 -10 -10 -11 -11 -11 -11 -12 -12 -11 -11 -11 -11 -11 -11 -11 -11 -11 -11 -11
-10 -10 -10 -10 -10 -10 -10 -10 -10 -10 -11 -11 -11 -11 -11 -10 -10 -11 -11 -11 -11 -11 -10 -10 -11 -11 -11 -11 -11 -11 -11 -11 -11 -12 -12 -12 -12 -12 -12 -12 -12 -12 -12 -12 -11 -11 -11 -11 -11
-10 -10 -10 -10 -10 -11 -11 -10 -10 -10 -11 -10 -10 -10 -10 -10 -11 -11 -12 -12 -12 -12 -11 -10 -10 -11 -11 -12 -12 -12 -12 -12 -12 -12 -12 -12 -12 -12 -12 -12 -12 -12 -13 -12 -12 -12 -12 -11 -12
-11 -10 -10 -10 -11 -10 -11 -10 -10 -10 -11 -10 -10 -10 -11 -11 -11 -11 -11 -12 -11 -11 -11 -11 -11 -11 -11 -11 -12 -12 -12 -12 -12 -12 -13 -13 -13 -13 -13 -12 -13 -13 -13 -13 -12 -13 -12 -12 -12
-11 -11 -10 -11 -11 -11 -11 -9 -10 -10 -10 -10 -10 -11 -11 -10 -11 -11 -11 -10 -10 -11 -11 -11 -12 -12 -11 -11 -12 -12 -12 -12 -12 -12 -13 -13 -13 -13 -13 -13 -14 -14 -13 -12 -13 -13 -13 -12 -12
-11 -11 -11 -10 -11 -12 -11 -10 -10 -10 -11 -10 -10 -11 -11 -11 -11 -11 -11 -10 -10 -11 -11 -11 -12 -12 -12 -12 -13 -13 -13 -13 -13 -13 -13 -14 -14 -14 -14 -14 -14 -14 -14 -12 -13 -13 -13 -13 -13
-12 -12 -11 -11 -12 -16 -16 -11 -11 -11 -12 -11 -10 -12 -12 -13 -13 -11 -10 -10 -12 -12 -12 -12 -12 -12 -12 -12 -12 -13 -13 -13 -14 -13 -14 -14 -14 -14 -14 -14 -14 -15 -14 -14 -13 -14 -14 -14 -13
-12 -12 -12 -11 -11 -16 -16 -15 -13 -12 -12 -12 -12 -12 -13 -14 -14 -12 -10 -10 -13 -12 -12 -12 -12 -12 -12 -13 -13 -13 -13 -13 -14 -14 -14 -15 -14 -14 -14 -14 -14 -15 -15 -15 -14 -14 -14 -14 -14
-15 -15 -14 -15 -14 -15 -16 -17 -15 -15 -14 -14 -15 -15 -14 -15 -14 -12 -11 -13 -13 -13 -13 -13 -12 -13 -13 -13 -13 -13 -13 -13 -14 -14 -14 -14 -14 -14 -14 -15 -14 -14 -15 -15 -16 -14 -15 -15 -14
-17 -18 -18 -18 -18 -18 -18 -19 -17 -15 -16 -16 -16 -16 -17 -16 -14 -13 -13 -14 -13 -13 -13 -13 -13 -13 -13 -13 -13 -13 -13 -13 -14 -14 -14 -14 -14 -14 -13 -15 -15 -15 -15 -15 -16 -16 -15 -15 -15
-21 -19 -20 -19 -19 -20 -18 -19 -19 -17 -17 -17 -17 -19 -17 -15 -14 -14 -14 -14 -14 -14 -14 -14 -14 -14 -14 -14 -13 -13 -13 -14 -14 -14 -14 -14 -14 -14 -13 -14 -15 -15 -15 -15 -15 -16 -15 -15 -15
-20 -20 -20 -19 -19 -19 -19 -19 -17 -17 -18 -18 -18 -18 -17 -15 -16 -16 -15 -15 -15 -14 -15 -15 -15 -15 -15 -14 -14 -14 -14 -14 -14 -14 -14 -15 -14 -14 -14 -13 -14 -15 -14 -14 -14 -15 -15 -15 -15
-20 -19 -19 -20 -20 -20 -18 -19 -18 -18 -18 -18 -18 -18 -17 -17 -17 -17 -17 -16 -16 -15 -15 -15 -15 -15 -15 -15 -15 -15 -15 -15 -14 -14 -14 -14 -14 -14 -14 -14 -14 -15 -15 -14 -14 -15 -15 -15 -15
-20 -20 -20 -20 -20 -19 -20 -20 -18 -19 -18 -18 -18 -18 -17 -19 -18 -18 -18 -18 -17 -17 -16 -16 -16 -16 -16 -16 -15 -15 -15 -15 -15 -14 -14 -14 -14 -14 -13 -14 -15 -15 -15 -15 -15 -15 -15 -15 -15
-21 -20 -20 -20 -20 -20 -19 -19 -19 -18 -18 -18 -18 -18 -18 -19 -19 -19 -18 -18 -18 -17 -17 -17 -16 -16 -16 -16 -16 -15 -15 -15 -15 -15 -15 -15 -15 -15 -14 -14 -14 -13 -16 -15 -15 -15 -15 -15 -15
-20 -20 -21 -21 -21 -20 -19 -19 -18 -18 -18 -19 -19 -18 -19 -19 -20 -19 -19 -18 -18 -18 -17 -17 -17 -17 -16 -16 -16 -15 -15 -15 -15 -15 -15 -15 -15 -15 -15 -15 -14 -15 -16 -16 -15 -15 -15 -14 -15
-20 -21 -21 -21 -21 -21 -20 -20 -19 -19 -19 -19 -19 -19 -19 -20 -20 -20 -20 -19 -18 -18 -17 -17 -17 -16 -16 -16 -15 -15 -15 -15 -15 -15 -15 -15 -15 -15 -15 -15 -15 -15 -16 -16 -16 -16 -15 -15 -15
-21 -21 -22 -22 -22 -21 -21 -21 -20 -20 -20 -20 -20 -20 -20 -20 -21 -20 -19 -19 -18 -18 -17 -17 -17 -16 -16 -16 -15 -15 -15 -15 -15 -16 -16 -16 -16 -17 -17 -17 -16 -16 -16 -16 -16 -16 -15 -15 -15
-22 -22 -22 -22 -21 -22 -22 -22 -21 -21 -20 -21 -21 -20 -20 -20 -20 -19 -19 -18 -18 -18 -17 -17 -17 -17 -16 -16 -16 -16 -16 -16 -15 -15 -16 -16 -16 -17 -17 -18 -18 -17 -16 -16 -16 -16 -16 -16 -15
Height
5841 5842 5843 5843 5847 5846 5848 5850 5852 5844 5845 5845 5846 5849 5849 5850 5849 5845 5841 5849 5849 5852 5850 5850 5850 5850 5850 5850 5850 5850 5849 5848 5848 5848 5847 5848 5849 5849 5850 5850 5851 5852 5851 5851 5851 5851 5851 5850 5850
5838 5838 5839 5840 5843 5843 5845 5850 5844 5837 5835 5844 5843 5843 5844 5843 5843 5841 5840 5847 5844 5846 5846 5846 5846 5846 5846 5846 5846 5846 5846 5845 5845 5845 5845 5845 5845 5846 5846 5847 5848 5849 5848 5848 5849 5849 5848 5848 5848
5833 5834 5834 5837 5839 5840 5840 5841 5839 5832 5836 5837 5839 5839 5838 5837 5841 5839 5839 5837 5840 5839 5842 5843 5842 5842 5841 5842 5842 5843 5843 5842 5842 5842 5842 5841 5841 5841 5842 5843 5845 5845 5845 5845 5846 5846 5846 5845 5845
5828 5829 5830 5832 5835 5837 5836 5838 5827 5831 5833 5832 5834 5835 5831 5835 5833 5836 5836 5834 5835 5835 5838 5838 5838 5837 5837 5838 5838 5839 5839 5839 5839 5839 5839 5838 5837 5837 5837 5839 5840 5841 5841 5842 5842 5842 5842 5842 5842
5823 5822 5823 5827 5831 5834 5835 5835 5821 5829 5829 5826 5830 5831 5827 5826 5830 5831 5831 5830 5830 5829 5833 5833 5833 5833 5833 5833 5833 5834 5834 5834 5834 5835 5835 5835 5835 5835 5834 5835 5835 5836 5836 5836 5837 5836 5837 5837 5839
5818 5817 5817 5821 5825 5828 5832 5826 5819 5824 5823 5822 5822 5826 5825 5816 5823 5827 5826 5825 5825 5824 5826 5828 5829 5828 5828 5828 5828 5829 5830 5830 5830 5830 5831 5831 5832 5832 5832 5833 5833 5833 5833 5833 5833 5833 5832 5833 5834
5812 5810 5813 5814 5820 5822 5823 5816 5813 5819 5819 5817 5816 5821 5822 5814 5815 5822 5818 5820 5820 5819 5821 5822 5823 5823 5823 5823 5823 5823 5824 5825 5826 5826 5826 5826 5827 5828 5829 5829 5829 5829 5829 5829 5829 5829 5829 5829 5830
5807 5805 5807 5811 5813 5815 5815 5809 5810 5813 5812 5811 5812 5813 5815 5807 5811 5817 5813 5814 5813 5814 5815 5816 5816 5817 5817 5817 5818 5819 5819 5821 5821 5821 5821 5821 5822 5823 5824 5825 5825 5826 5826 5826 5824 5824 5824 5824 5825
5801 5801 5802 5806 5803 5805 5804 5801 5804 5805 5806 5805 5804 5806 5807 5804 5804 5807 5808 5808 5808 5807 5808 5808 5810 5811 5811 5811 5811 5812 5813 5814 5815 5816 5816 5816 5817 5818 5819 5820 5821 5821 5821 5822 5821 5821 5820 5820 5821
5796 5794 5798 5796 5796 5794 5797 5797 5798 5799 5797 5800 5798 5796 5800 5799 5796 5799 5802 5802 5800 5801 5799 5800 5802 5802 5803 5804 5805 5805 5806 5807 5809 5811 5811 5810 5811 5812 5813 5814 5814 5816 5817 5817 5817 5817 5817 5816 5816
5790 5791 5791 5791 5790 5787 5789 5790 5790 5789 5791 5790 5790 5790 5790 5791 5792 5793 5793 5793 5792 5791 5793 5793 5793 5793 5794 5795 5797 5797 5798 5800 5802 5804 5804 5804 5805 5805 5806 5807 5809 5811 5811 5812 5812 5813 5812 5812 5811
5781 5783 5784 5784 5783 5781 5781 5783 5781 5781 5782 5781 5782 5783 5782 5780 5783 5785 5784 5783 5783 5783 5785 5787 5783 5783 5785 5787 5788 5789 5790 5792 5795 5796 5798 5799 5799 5799 5801 5801 5802 5804 5806 5807 5807 5808 5808 5808 5806
5774 5774 5773 5774 5775 5776 5775 5775 5773 5772 5772 5773 5771 5771 5773 5774 5774 5773 5775 5774 5774 5774 5774 5777 5775 5776 5776 5776 5779 5780 5782 5784 5787 5789 5791 5792 5794 5794 5794 5795 5795 5798 5800 5801 5802 5803 5804 5804 5803
5765 5764 5765 5763 5764 5766 5765 5765 5764 5766 5764 5762 5761 5761 5763 5763 5764 5763 5763 5761 5762 5761 5763 5767 5770 5770 5766 5768 5769 5770 5772 5775 5777 5781 5784 5785 5787 5788 5788 5789 5789 5791 5793 5793 5795 5797 5798 5799 5798
5754 5755 5755 5756 5755 5755 5751 5752 5755 5756 5754 5753 5751 5752 5751 5751 5753 5753 5751 5750 5748 5752 5753 5757 5759 5761 5763 5755 5759 5762 5762 5766 5768 5772 5773 5777 5780 5780 5782 5782 5781 5782 5784 5787 5788 5789 5790 5792 5792
5741 5742 5745 5749 5744 5742 5737 5744 5742 5742 5742 5743 5744 5742 5739 5738 5740 5741 5740 5738 5738 5741 5743 5746 5751 5749 5750 5752 5752 5752 5755 5757 5758 5761 5763 5767 5769 5772 5773 5774 5775 5775 5775 5779 5780 5781 5782 5783 5785
5731 5732 5731 5737 5731 5727 5723 5730 5727 5727 5728 5730 5732 5732 5729 5727 5725 5727 5730 5729 5731 5731 5731 5733 5736 5738 5739 5740 5742 5744 5746 5747 5749 5751 5753 5756 5759 5763 5764 5766 5767 5766 5768 5767 5772 5773 5773 5775 5776
5716 5714 5717 5719 5723 5718 5709 5710 5712 5714 5713 5716 5717 5720 5719 5716 5713 5714 5716 5720 5723 5719 5721 5722 5724 5726 5728 5728 5731 5733 5734 5736 5738 5740 5742 5744 5748 5751 5754 5756 5760 5760 5759 5760 5760 5764 5764 5767 5768
5699 5699 5698 5705 5709 5701 5696 5694 5698 5698 5698 5700 5703 5702 5706 5705 5696 5701 5704 5708 5708 5710 5711 5712 5712 5713 5715 5717 5719 5720 5723 5725 5727 5729 5732 5735 5736 5740 5742 5745 5747 5752 5752 5752 5750 5752 5755 5758 5759
5683 5681 5680 5680 5687 5683 5684 5680 5686 5685 5684 5688 5691 5691 5690 5690 5684 5689 5695 5698 5695 5696 5699 5700 5701 5702 5702 5704 5707 5709 5711 5713 5714 5717 5720 5723 5724 5725 5729 5732 5735 5739 5742 5742 5743 5742 5747 5748 5750
5665 5664 5664 5665 5667 5667 5664 5661 5667 5672 5675 5676 5678 5678 5671 5670 5672 5680 5684 5683 5684 5685 5686 5688 5690 5691 5692 5693 5693 5695 5698 5701 5703 5704 5706 5708 5710 5711 5713 5719 5721 5723 5727 5730 5733 5734 5735 5739 5740
5653 5657 5654 5655 5654 5648 5658 5647 5654 5660 5664 5660 5664 5661 5656 5660 5661 5667 5669 5671 5671 5675 5675 5675 5677 5678 5680 5681 5683 5684 5686 5687 5689 5689 5692 5695 5698 5699 5701 5703 5708 5710 5713 5716 5720 5723 5725 5727 5729
5644 5646 5641 5641 5641 5642 5643 5640 5645 5652 5657 5648 5647 5642 5648 5654 5652 5654 5656 5658 5659 5662 5663 5664 5665 5666 5667 5669 5670 5672 5674 5676 5677 5677 5678 5680 5683 5687 5689 5692 5693 5697 5700 5703 5707 5710 5713 5716 5719
5633 5632 5633 5631 5631 5628 5636 5634 5634 5641 5641 5644 5619 5631 5640 5643 5644 5643 5645 5646 5647 5649 5650 5652 5654 5655 5656 5657 5659 5660 5662 5663 5664 5665 5666 5668 5669 5672 5676 5678 5679 5681 5686 5689 5694 5698 5702 5705 5707
5623 5624 5623 5623 5621 5621 5626 5624 5628 5623 5623 5620 5622 5623 5631 5630 5632 5635 5636 5636 5636 5638 5639 5640 5641 5642 5644 5645 5646 5647 5647 5648 5650 5651 5652 5652 5654 5657 5662 5663 5666 5667 5672 5677 5681 5685 5690 5694 5695
5614 5615 5615 5614 5616 5617 5617 5615 5618 5616 5616 5615 5612 5617 5622 5622 5624 5626 5626 5626 5627 5627 5627 5629 5630 5630 5631 5632 5632 5633 5633 5633 5635 5636 5635 5636 5636 5639 5643 5647 5652 5637 5653 5663 5667 5671 5677 5682 5684
5610 5608 5612 5608 5609 5609 5612 5614 5612 5608 5608 5610 5610 5612 5610 5610 5612 5615 5615 5616 5617 5618 5618 5619 5619 5619 5619 5619 5619 5619 5618 5617 5617 5617 5617 5618 5619 5621 5624 5627 5633 5639 5643 5649 5654 5658 5664 5669 5673
5602 5603 5604 5604 5604 5603 5606 5611 5601 5602 5601 5602 5602 5604 5605 5605 5604 5604 5605 5606 5606 5607 5607 5607 5607 5607 5607 5607 5605 5604 5601 5599 5597 5596 5595 5594 5597 5597 5600 5606 5612 5622 5628 5635 5640 5646 5651 5657 5660
5594 5596 5596 5596 5598 5596 5597 5601 5598 5596 5595 5595 5594 5594 5594 5595 5596 5596 5596 5596 5596 5596 5596 5596 5595 5594 5593 5592 5590 5587 5584 5581 5579 5577 5577 5576 5577 5580 5583 5588 5594 5604 5611 5620 5626 5635 5640 5645 5648
5588 5587 5587 5586 5589 5589 5588 5590 5590 5589 5585 5583 5582 5584 5587 5589 5588 5586 5586 5587 5587 5586 5585 5584 5583 5581 5579 5576 5574 5571 5568 5566 5565 5564 5564 5564 5565 5567 5571 5574 5579 5587 5598 5606 5615 5622 5626 5633 5637
Wind_Speed
23 22 22 20 18 15 8 8 9 33 33 31 29 28 27 23 24 33 36 25 24 20 24 24 24 24 23 23 23 19 20 20 21 22 22 20 18 18 17 17 17 17 17 17 17 16 13 12 13
24 24 23 21 16 12 6 8 25 37 35 22 28 29 28 29 30 31 32 22 27 25 25 24 24 25 25 24 24 22 21 22 23 21 21 23 22 19 17 17 18 18 18 18 19 18 17 16 14
25 25 25 22 17 13 14 18 30 42 31 31 29 29 32 34 28 28 28 30 28 29 26 24 26 26 27 26 25 23 24 23 24 22 19 20 22 23 21 20 19 19 19 20 19 20 19 18 16
26 26 26 22 19 18 21 16 39 36 30 33 31 29 33 28 32 30 30 33 31 30 27 26 26 27 27 28 25 24 24 25 25 22 21 20 19 21 22 21 20 20 20 20 19 20 19 19 18
25 27 25 23 20 21 21 21 44 29 29 36 31 29 32 32 28 27 30 33 32 33 27 28 28 28 28 29 28 26 26 26 26 25 21 21 21 20 20 21 21 21 20 19 20 20 19 19 19
23 26 26 23 19 19 11 30 43 30 32 34 36 29 26 38 28 23 28 31 32 34 32 29 29 30 31 31 30 29 28 27 27 27 25 22 21 20 20 20 21 20 21 21 21 21 20 19 19
25 29 25 24 20 23 26 32 42 30 31 37 39 32 25 35 33 20 32 30 31 31 32 31 31 32 33 33 33 31 31 29 28 28 28 27 25 24 22 22 23 23 23 23 23 23 22 21 19
28 31 28 23 21 23 29 40 40 32 34 37 37 35 32 40 33 19 28 29 31 32 32 34 34 33 33 35 34 35 33 33 30 29 30 32 30 27 26 26 26 27 27 26 24 24 22 21 19
26 30 29 23 27 27 35 41 38 38 36 38 40 37 34 38 39 32 30 31 32 33 32 34 35 35 35 35 36 36 36 34 32 30 30 32 31 29 28 28 29 28 28 27 25 23 21 20 20
26 29 26 29 30 35 31 34 37 37 41 39 41 44 39 38 42 36 35 35 37 35 37 36 36 37 38 37 37 38 37 35 33 30 29 32 34 33 31 31 30 29 28 27 25 23 21 22 22
28 28 28 31 33 35 33 33 36 37 38 41 42 43 43 44 44 42 40 39 41 39 38 38 39 40 39 39 39 40 40 36 34 32 32 33 35 35 37 34 32 30 30 28 27 24 23 23 23
34 31 30 31 34 36 35 32 35 40 40 43 43 44 44 46 45 43 42 43 43 42 39 39 43 41 41 41 40 42 43 41 36 34 35 35 35 35 36 38 35 33 31 30 29 28 26 24 24
43 40 37 37 37 36 38 38 39 38 39 41 46 48 48 50 50 47 44 44 44 44 44 43 40 41 43 43 43 42 43 43 40 37 37 37 36 37 38 40 39 37 34 31 32 29 29 26 24
50 51 49 47 41 39 45 45 42 39 40 42 43 44 45 46 48 53 52 51 50 52 47 45 42 42 40 42 42 42 43 44 42 39 38 39 37 38 40 42 43 40 35 36 33 32 29 29 27
56 56 55 52 49 50 52 53 49 49 46 42 42 39 42 44 44 44 48 51 53 52 50 46 47 45 42 42 43 43 46 46 45 41 40 40 37 40 38 40 37 40 41 36 36 35 33 30 30
56 58 58 56 57 56 58 56 56 54 56 53 45 41 41 43 43 45 47 50 52 49 49 48 46 52 52 50 48 47 48 49 48 46 44 41 40 38 38 39 37 39 43 40 38 39 37 33 33
60 61 62 58 63 61 68 64 64 63 59 57 55 49 47 46 45 44 45 47 45 46 49 50 49 52 53 51 50 49 49 50 49 48 47 45 44 40 42 43 41 43 42 45 42 42 41 37 36
64 68 68 68 61 28 45 74 72 70 65 61 59 51 50 49 49 49 49 49 40 46 48 48 48 48 51 51 51 52 51 51 51 51 51 52 48 46 44 44 42 41 44 43 45 44 43 37 38
72 74 75 74 71 56 52 59 73 74 70 68 61 61 52 49 51 56 50 43 40 43 45 47 47 48 48 50 51 52 53 53 53 54 54 53 55 49 48 47 45 40 43 43 48 48 46 40 39
68 72 75 74 71 68 64 63 71 72 74 70 59 55 58 51 53 56 54 42 43 43 42 43 45 47 48 49 49 51 52 53 53 53 53 53 53 53 50 48 45 43 42 45 45 50 47 44 41
67 60 61 59 59 61 60 57 61 70 63 55 54 54 49 51 60 57 49 48 47 44 41 41 42 44 46 47 48 49 49 51 53 53 54 55 53 55 55 51 48 48 43 45 46 49 50 45 44
50 49 41 38 42 49 47 51 46 59 46 43 44 39 54 60 58 53 52 51 48 49 44 43 43 44 45 46 47 49 49 50 51 51 51 51 50 51 51 48 46 49 46 47 47 48 49 48 49
43 45 52 53 56 51 46 52 46 41 29 40 40 50 49 47 43 43 46 46 46 46 45 45 45 45 46 47 47 48 48 50 51 51 52 50 50 49 50 48 48 47 48 47 50 49 50 51 51
44 46 43 45 48 51 51 45 43 38 32 38 49 50 40 35 39 44 43 43 45 45 46 46 45 45 45 46 47 47 48 49 51 52 54 54 55 54 53 53 53 49 46 47 48 51 51 53 53
46 42 43 45 44 44 35 33 33 33 40 45 47 40 37 32 32 35 38 41 43 44 45 46 45 44 45 45 46 48 50 51 52 55 56 57 59 60 58 58 56 54 49 47 50 52 51 52 54
36 41 41 33 31 28 25 31 26 31 35 39 42 43 40 33 31 35 39 41 42 43 44 43 43 43 43 43 44 46 49 51 53 56 58 60 62 62 62 61 60 57 52 52 51 52 51 52 53
28 26 22 24 21 26 25 21 21 28 29 34 38 40 31 43 46 43 43 42 41 41 41 42 43 44 44 45 47 49 51 53 57 60 63 64 65 66 66 65 62 63 56 56 55 53 50 51 52
27 29 29 30 30 33 26 22 29 29 25 31 37 41 45 48 48 35 34 36 38 40 41 42 44 45 46 48 52 53 56 60 61 63 62 62 63 66 71 73 71 65 60 57 55 53 51 53 53
31 35 38 34 34 34 40 38 40 37 35 32 26 33 37 35 31 37 39 39 39 40 41 43 45 47 49 52 54 56 59 61 56 49 50 47 47 54 56 58 65 69 62 57 55 52 49 53 52
35 34 34 33 32 38 45 43 38 33 30 36 44 45 33 33 34 37 36 37 39 41 43 46 48 51 53 55 57 57 54 47 45 43 44 42 39 42 45 46 52 57 56 57 53 52 51 52 50
Wind_Direction
270 269 270 268 270 268 267 264 253 254 257 259 268 265 265 268 261 251 262 277 279 262 264 265 266 267 268 270 274 278 272 274 281 283 281 277 273 269 264 264 266 271 276 285 291 295 301 310 317
270 269 270 269 265 252 64 299 252 251 258 272 261 264 263 257 253 260 274 272 266 261 264 263 263 267 269 271 274 277 273 272 274 280 283 278 277 277 278 275 273 274 278 283 286 288 294 301 310
270 269 267 266 259 237 192 251 256 264 269 270 267 266 267 261 262 260 259 260 259 262 261 262 262 267 271 272 276 280 279 277 279 280 278 275 272 274 275 278 283 284 282 282 282 285 287 292 299
267 267 267 263 252 233 220 243 265 257 267 269 272 271 267 272 268 261 261 261 260 259 258 259 259 262 267 272 275 276 274 276 278 280 277 279 280 275 273 276 283 287 286 285 283 279 281 287 292
268 267 263 263 250 241 253 260 266 264 270 274 268 268 273 269 265 273 261 262 263 264 260 258 259 262 264 267 270 271 270 273 276 279 277 279 283 286 281 277 278 279 277 278 276 274 277 281 286
269 269 267 263 245 230 252 263 264 264 267 267 268 271 275 278 265 260 268 265 264 266 266 262 262 261 262 264 267 270 270 271 274 279 281 278 279 284 285 283 279 276 276 275 273 276 279 281 282
267 268 266 265 260 245 238 246 258 261 262 265 269 271 274 272 272 258 262 263 266 266 267 266 263 262 263 265 268 267 268 271 273 276 279 279 276 279 281 283 284 283 279 277 281 284 286 288 286
272 271 272 272 264 245 241 248 263 260 257 265 269 271 267 266 273 256 261 261 263 264 266 267 265 262 262 264 266 267 269 271 273 275 276 279 282 284 286 285 283 286 284 283 280 284 287 288 285
274 276 275 271 264 257 243 253 256 259 261 262 265 265 267 268 266 260 260 266 265 266 265 267 268 267 263 262 263 264 265 268 271 274 276 278 278 278 280 284 287 284 284 284 281 282 281 282 285
280 277 281 271 266 264 264 260 266 261 262 260 265 268 263 262 269 269 267 264 265 263 263 263 265 264 262 261 262 262 264 265 268 269 271 273 277 280 280 281 283 286 284 284 283 281 279 282 285
289 286 283 281 275 273 270 265 266 265 265 265 261 263 268 266 266 268 269 266 265 263 262 266 260 261 260 261 261 264 265 266 266 266 266 268 274 279 284 285 285 283 283 280 279 276 276 284 286
293 296 288 283 277 276 281 275 265 265 264 266 266 265 263 268 269 270 266 264 264 264 264 262 258 256 260 259 261 261 264 266 266 264 264 265 267 272 276 282 284 282 282 280 278 275 277 282 283
290 290 287 287 283 281 285 281 274 268 271 271 270 267 268 266 268 270 270 266 263 262 259 257 258 258 256 258 257 258 261 265 265 264 265 265 264 266 271 275 278 283 281 276 274 272 272 280 283
286 285 287 285 284 289 286 284 280 277 276 272 270 272 273 272 270 267 265 264 261 255 253 252 260 263 264 257 259 260 260 261 263 261 261 264 264 263 268 270 274 274 275 277 275 276 276 277 281
284 283 282 286 288 286 285 279 284 281 276 274 275 277 276 275 270 270 269 269 268 266 267 264 249 256 248 262 256 259 263 264 266 263 261 263 262 264 268 271 272 270 271 272 274 275 276 276 279
282 281 280 285 284 282 279 277 283 281 281 274 271 276 274 275 274 268 266 267 271 269 266 265 258 254 252 258 258 258 259 261 264 264 265 264 263 258 259 261 271 271 272 272 276 277 278 278 278
286 283 282 277 284 284 279 274 275 275 274 276 274 275 274 270 268 268 269 270 273 270 266 261 258 255 258 258 258 260 261 263 264 265 265 265 266 262 257 260 266 269 270 272 274 279 279 277 278
284 283 281 277 277 278 279 274 271 271 271 271 271 271 270 273 272 266 271 274 272 265 264 263 261 259 258 258 257 258 258 260 263 265 265 267 266 265 262 258 258 261 265 269 271 273 275 277 277
277 275 276 275 273 259 249 258 271 274 272 272 269 268 270 269 265 268 267 273 263 265 265 263 261 260 258 257 259 258 257 258 258 259 262 261 267 264 261 259 257 255 258 262 266 269 272 273 275
273 274 272 272 269 268 264 259 263 267 267 269 274 273 268 264 262 263 268 274 267 265 263 263 263 262 262 261 259 258 258 258 257 259 262 264 266 267 263 260 259 254 251 256 260 267 269 269 269
274 273 276 276 275 268 269 268 269 265 270 273 271 268 259 260 263 267 267 267 270 267 266 263 262 262 261 262 262 262 262 261 260 258 259 259 258 258 258 256 256 255 250 249 252 257 263 266 266
272 280 274 269 266 267 267 270 264 272 276 265 269 239 251 261 266 268 267 267 267 270 265 262 261 260 260 258 258 259 260 260 260 260 260 258 257 257 259 258 251 251 248 244 245 248 255 258 261
265 267 269 276 273 278 261 265 281 270 236 267 253 255 263 266 267 264 265 266 265 264 263 261 261 260 260 259 259 259 258 258 257 258 259 258 258 255 255 255 255 249 248 249 248 247 249 254 257
276 275 279 275 269 262 272 269 271 274 250 253 237 255 262 268 262 260 259 260 260 261 261 261 261 261 262 262 262 261 261 261 260 259 258 259 259 259 258 258 256 250 248 250 249 249 248 249 253
275 276 279 279 269 286 285 274 275 248 245 248 250 237 251 255 244 251 257 259 261 262 264 264 265 265 265 264 264 265 266 265 263 262 262 261 259 258 256 255 255 253 250 245 248 246 247 248 250
279 270 269 267 272 279 265 261 245 249 256 253 237 246 248 239 252 259 259 260 261 261 262 263 265 266 268 268 268 267 267 268 268 266 263 261 260 258 257 255 253 246 241 247 245 245 244 242 246
275 274 272 270 274 252 244 242 228 236 236 224 237 240 249 256 262 263 259 257 260 262 263 263 265 267 268 270 270 270 270 271 270 267 264 261 258 257 255 253 249 248 244 241 241 240 242 241 245
279 273 270 273 259 258 242 237 264 268 259 249 250 254 258 262 264 263 263 263 262 263 264 267 269 270 271 271 271 271 271 276 273 272 267 262 258 254 251 249 247 247 244 238 237 238 237 241 240
264 259 272 270 251 258 254 236 240 250 259 260 249 249 252 256 263 270 267 266 268 268 269 271 273 274 273 272 273 274 276 278 276 271 269 264 258 255 253 252 246 242 241 236 233 235 235 238 240
269 263 270 272 269 254 255 256 253 241 249 256 255 257 261 270 278 274 272 272 272 274 276 277 276 276 277 277 277 278 281 278 278 272 265 264 260 254 254 253 244 236 236 233 231 228 231 236 240